site,time,unit,value
Dillotford Avenue,10/11/2023 00:00:00,MW,6.0947553
Dillotford Avenue,10/11/2023 00:05:00,MW,6.2599754999999995
Dillotford Avenue,10/11/2023 00:10:00,MW,5.7816141000000005
Dillotford Avenue,10/11/2023 00:15:00,MW,5.6700043
Dillotford Avenue,10/11/2023 00:20:00,MW,5.7920254
Dillotford Avenue,10/11/2023 00:25:00,MW,5.7903082
Dillotford Avenue,10/11/2023 00:30:00,MW,5.857885899999999
Dillotford Avenue,10/11/2023 00:35:00,MW,5.8226027
Dillotford Avenue,10/11/2023 00:40:00,MW,5.7252176
Dillotford Avenue,10/11/2023 00:45:00,MW,5.6607421
Dillotford Avenue,10/11/2023 00:50:00,MW,5.5515069
Dillotford Avenue,10/11/2023 00:55:00,MW,5.4961939
Dillotford Avenue,10/11/2023 01:00:00,MW,5.5611305
Dillotford Avenue,10/11/2023 01:05:00,MW,5.5386936
Dillotford Avenue,10/11/2023 01:10:00,MW,5.526019
Dillotford Avenue,10/11/2023 01:15:00,MW,5.5356417
Dillotford Avenue,10/11/2023 01:20:00,MW,5.5028936999999996
Dillotford Avenue,10/11/2023 01:25:00,MW,5.4719714
Dillotford Avenue,10/11/2023 01:30:00,MW,5.4793828
Dillotford Avenue,10/11/2023 01:35:00,MW,5.5383869
Dillotford Avenue,10/11/2023 01:40:00,MW,5.468643
Dillotford Avenue,10/11/2023 01:45:00,MW,5.4001526
Dillotford Avenue,10/11/2023 01:50:00,MW,5.457905800000001
Dillotford Avenue,10/11/2023 01:55:00,MW,5.4070921
Dillotford Avenue,10/11/2023 02:00:00,MW,5.4153712
Dillotford Avenue,10/11/2023 02:05:00,MW,5.4250286
Dillotford Avenue,10/11/2023 02:10:00,MW,5.3277389
Dillotford Avenue,10/11/2023 02:15:00,MW,5.3759935
Dillotford Avenue,10/11/2023 02:20:00,MW,5.3239228
Dillotford Avenue,10/11/2023 02:25:00,MW,5.3013369
Dillotford Avenue,10/11/2023 02:30:00,MW,5.3249646
Dillotford Avenue,10/11/2023 02:35:00,MW,5.3312577999999995
Dillotford Avenue,10/11/2023 02:40:00,MW,5.3066774
Dillotford Avenue,10/11/2023 02:45:00,MW,5.2606812
Dillotford Avenue,10/11/2023 02:50:00,MW,5.2235669
Dillotford Avenue,10/11/2023 02:55:00,MW,5.2270833
Dillotford Avenue,10/11/2023 03:00:00,MW,5.1105355
Dillotford Avenue,10/11/2023 03:05:00,MW,5.1676337
Dillotford Avenue,10/11/2023 03:10:00,MW,5.3514164
Dillotford Avenue,10/11/2023 03:15:00,MW,5.1357479
Dillotford Avenue,10/11/2023 03:20:00,MW,4.9449060000000005
Dillotford Avenue,10/11/2023 03:25:00,MW,4.8520852
Dillotford Avenue,10/11/2023 03:30:00,MW,4.8943479
Dillotford Avenue,10/11/2023 03:35:00,MW,5.01328
Dillotford Avenue,10/11/2023 03:40:00,MW,4.991441099999999
Dillotford Avenue,10/11/2023 03:45:00,MW,5.1806436
Dillotford Avenue,10/11/2023 03:50:00,MW,4.9351904
Dillotford Avenue,10/11/2023 03:55:00,MW,4.8212849
Dillotford Avenue,10/11/2023 04:00:00,MW,4.8942467
Dillotford Avenue,10/11/2023 04:05:00,MW,4.9165205
Dillotford Avenue,10/11/2023 04:10:00,MW,4.891466100000001
Dillotford Avenue,10/11/2023 04:15:00,MW,4.933704499999999
Dillotford Avenue,10/11/2023 04:20:00,MW,4.906871
Dillotford Avenue,10/11/2023 04:25:00,MW,5.1571148
Dillotford Avenue,10/11/2023 04:30:00,MW,4.8332117
Dillotford Avenue,10/11/2023 04:35:00,MW,4.7361348
Dillotford Avenue,10/11/2023 04:40:00,MW,4.8156558
Dillotford Avenue,10/11/2023 04:45:00,MW,4.8450134
Dillotford Avenue,10/11/2023 04:50:00,MW,4.9112831
Dillotford Avenue,10/11/2023 04:55:00,MW,4.8894518
Dillotford Avenue,10/11/2023 05:00:00,MW,4.8576288
Dillotford Avenue,10/11/2023 05:05:00,MW,4.9062302
Dillotford Avenue,10/11/2023 05:10:00,MW,4.8379096
Dillotford Avenue,10/11/2023 05:15:00,MW,4.8317326
Dillotford Avenue,10/11/2023 05:20:00,MW,4.8496118
Dillotford Avenue,10/11/2023 05:25:00,MW,4.8873565
Dillotford Avenue,10/11/2023 05:30:00,MW,5.0023282
Dillotford Avenue,10/11/2023 05:35:00,MW,5.1970405
Dillotford Avenue,10/11/2023 05:40:00,MW,4.7857978
Dillotford Avenue,10/11/2023 05:45:00,MW,4.6829665
Dillotford Avenue,10/11/2023 05:50:00,MW,4.8344407
Dillotford Avenue,10/11/2023 05:55:00,MW,4.9513168
Dillotford Avenue,10/11/2023 06:00:00,MW,5.0004705
Dillotford Avenue,10/11/2023 06:05:00,MW,5.045788
Dillotford Avenue,10/11/2023 06:10:00,MW,5.1586161
Dillotford Avenue,10/11/2023 06:15:00,MW,5.38967
Dillotford Avenue,10/11/2023 06:20:00,MW,5.4211356
Dillotford Avenue,10/11/2023 06:25:00,MW,5.2459083
Dillotford Avenue,10/11/2023 06:30:00,MW,5.0976058
Dillotford Avenue,10/11/2023 06:35:00,MW,5.3504669
Dillotford Avenue,10/11/2023 06:40:00,MW,5.6143260999999995
Dillotford Avenue,10/11/2023 06:45:00,MW,5.7541728
Dillotford Avenue,10/11/2023 06:50:00,MW,6.048277199999999
Dillotford Avenue,10/11/2023 06:55:00,MW,6.0589013000000005
Dillotford Avenue,10/11/2023 07:00:00,MW,5.9997162
Dillotford Avenue,10/11/2023 07:05:00,MW,6.247840399999999
Dillotford Avenue,10/11/2023 07:10:00,MW,6.2024842
Dillotford Avenue,10/11/2023 07:15:00,MW,6.1472067
Dillotford Avenue,10/11/2023 07:20:00,MW,6.14608
Dillotford Avenue,10/11/2023 07:25:00,MW,6.3191628
Dillotford Avenue,10/11/2023 07:30:00,MW,6.5619779000000005
Dillotford Avenue,10/11/2023 07:35:00,MW,6.5247881
Dillotford Avenue,10/11/2023 07:40:00,MW,6.5255091
Dillotford Avenue,10/11/2023 07:45:00,MW,6.555712700000001
Dillotford Avenue,10/11/2023 07:50:00,MW,6.552386800000001
Dillotford Avenue,10/11/2023 07:55:00,MW,6.5800982999999995
Dillotford Avenue,10/11/2023 08:00:00,MW,6.4891267
Dillotford Avenue,10/11/2023 08:05:00,MW,6.558469
Dillotford Avenue,10/11/2023 08:10:00,MW,6.474024399999999
Dillotford Avenue,10/11/2023 08:15:00,MW,6.646092400000001
Dillotford Avenue,10/11/2023 08:20:00,MW,6.5310965
Dillotford Avenue,10/11/2023 08:25:00,MW,6.5807318
Dillotford Avenue,10/11/2023 08:30:00,MW,6.7705636
Dillotford Avenue,10/11/2023 08:35:00,MW,6.812980400000001
Dillotford Avenue,10/11/2023 08:40:00,MW,6.7982212
Dillotford Avenue,10/11/2023 08:45:00,MW,6.8351641
Dillotford Avenue,10/11/2023 08:50:00,MW,6.8875402999999995
Dillotford Avenue,10/11/2023 08:55:00,MW,6.9495971999999995
Dillotford Avenue,10/11/2023 09:00:00,MW,7.1298933
Dillotford Avenue,10/11/2023 09:05:00,MW,7.2606855
Dillotford Avenue,10/11/2023 09:10:00,MW,7.2579595
Dillotford Avenue,10/11/2023 09:15:00,MW,7.037122999999999
Dillotford Avenue,10/11/2023 09:20:00,MW,7.0313194
Dillotford Avenue,10/11/2023 09:25:00,MW,7.058529
Dillotford Avenue,10/11/2023 09:30:00,MW,6.998913
Dillotford Avenue,10/11/2023 09:35:00,MW,7.1291831000000006
Dillotford Avenue,10/11/2023 09:40:00,MW,7.112345299999999
Dillotford Avenue,10/11/2023 09:45:00,MW,7.0834294
Dillotford Avenue,10/11/2023 09:50:00,MW,7.1219878
Dillotford Avenue,10/11/2023 09:55:00,MW,7.1913271000000005
Dillotford Avenue,10/11/2023 10:00:00,MW,7.1138330000000005
Dillotford Avenue,10/11/2023 10:05:00,MW,7.250286600000001
Dillotford Avenue,10/11/2023 10:10:00,MW,7.3903634
Dillotford Avenue,10/11/2023 10:15:00,MW,7.4028336
Dillotford Avenue,10/11/2023 10:20:00,MW,7.3003593
Dillotford Avenue,10/11/2023 10:25:00,MW,7.3699133
Dillotford Avenue,10/11/2023 10:30:00,MW,7.380059299999999
Dillotford Avenue,10/11/2023 10:35:00,MW,7.4559331
Dillotford Avenue,10/11/2023 10:40:00,MW,7.5497380000000005
Dillotford Avenue,10/11/2023 10:45:00,MW,7.5322312
Dillotford Avenue,10/11/2023 10:50:00,MW,7.4166455
Dillotford Avenue,10/11/2023 10:55:00,MW,7.2788222000000005
Dillotford Avenue,10/11/2023 11:00:00,MW,7.1655318999999995
Dillotford Avenue,10/11/2023 11:05:00,MW,7.059479
Dillotford Avenue,10/11/2023 11:10:00,MW,6.988284999999999
Dillotford Avenue,10/11/2023 11:15:00,MW,6.990928
Dillotford Avenue,10/11/2023 11:20:00,MW,6.9594754000000005
Dillotford Avenue,10/11/2023 11:25:00,MW,6.941816299999999
Dillotford Avenue,10/11/2023 11:30:00,MW,7.052715299999999
Dillotford Avenue,10/11/2023 11:35:00,MW,7.3722914
Dillotford Avenue,10/11/2023 11:40:00,MW,7.3742113
Dillotford Avenue,10/11/2023 11:45:00,MW,7.4686007
Dillotford Avenue,10/11/2023 11:50:00,MW,7.368118000000001
Dillotford Avenue,10/11/2023 11:55:00,MW,7.418641
Dillotford Avenue,10/11/2023 12:00:00,MW,7.540042100000001
Dillotford Avenue,10/11/2023 12:05:00,MW,7.5511887
Dillotford Avenue,10/11/2023 12:10:00,MW,7.6146709
Dillotford Avenue,10/11/2023 12:15:00,MW,7.5442813
Dillotford Avenue,10/11/2023 12:20:00,MW,7.4126539000000005
Dillotford Avenue,10/11/2023 12:25:00,MW,7.3751233
Dillotford Avenue,10/11/2023 12:30:00,MW,7.464518999999999
Dillotford Avenue,10/11/2023 12:35:00,MW,7.499207200000001
Dillotford Avenue,10/11/2023 12:40:00,MW,7.2350788
Dillotford Avenue,10/11/2023 12:45:00,MW,7.4039530000000005
Dillotford Avenue,10/11/2023 12:50:00,MW,7.2822956
Dillotford Avenue,10/11/2023 12:55:00,MW,7.3286234
Dillotford Avenue,10/11/2023 13:00:00,MW,7.3925582
Dillotford Avenue,10/11/2023 13:05:00,MW,7.4221373
Dillotford Avenue,10/11/2023 13:10:00,MW,7.4253754
Dillotford Avenue,10/11/2023 13:15:00,MW,7.3817337
Dillotford Avenue,10/11/2023 13:20:00,MW,7.3132074
Dillotford Avenue,10/11/2023 13:25:00,MW,7.2780757
Dillotford Avenue,10/11/2023 13:30:00,MW,7.2292593
Dillotford Avenue,10/11/2023 13:35:00,MW,7.177604499999999
Dillotford Avenue,10/11/2023 13:40:00,MW,7.0533397
Dillotford Avenue,10/11/2023 13:45:00,MW,7.058590499999999
Dillotford Avenue,10/11/2023 13:50:00,MW,6.9860708
Dillotford Avenue,10/11/2023 13:55:00,MW,7.0376943
Dillotford Avenue,10/11/2023 14:00:00,MW,7.063130699999999
Dillotford Avenue,10/11/2023 14:05:00,MW,7.892632000000001
Dillotford Avenue,10/11/2023 14:10:00,MW,7.878304700000001
Dillotford Avenue,10/11/2023 14:15:00,MW,7.8145254
Dillotford Avenue,10/11/2023 14:20:00,MW,7.7423921
Dillotford Avenue,10/11/2023 14:25:00,MW,7.6887498
Dillotford Avenue,10/11/2023 14:30:00,MW,7.579129399999999
Dillotford Avenue,10/11/2023 14:35:00,MW,7.5978952
Dillotford Avenue,10/11/2023 14:40:00,MW,7.6216112
Dillotford Avenue,10/11/2023 14:45:00,MW,7.503271100000001
Dillotford Avenue,10/11/2023 14:50:00,MW,7.4811862
Dillotford Avenue,10/11/2023 14:55:00,MW,7.5185736
Dillotford Avenue,10/11/2023 15:00:00,MW,7.5320648
Dillotford Avenue,10/11/2023 15:05:00,MW,7.51092
Dillotford Avenue,10/11/2023 15:10:00,MW,7.6147654
Dillotford Avenue,10/11/2023 15:15:00,MW,7.632047200000001
Dillotford Avenue,10/11/2023 15:20:00,MW,7.6036722
Dillotford Avenue,10/11/2023 15:25:00,MW,7.6465721
Dillotford Avenue,10/11/2023 15:30:00,MW,7.619788099999999
Dillotford Avenue,10/11/2023 15:35:00,MW,7.6786087
Dillotford Avenue,10/11/2023 15:40:00,MW,7.8404398
Dillotford Avenue,10/11/2023 15:45:00,MW,7.9248355
Dillotford Avenue,10/11/2023 15:50:00,MW,7.9222632
Dillotford Avenue,10/11/2023 15:55:00,MW,8.0137789
Dillotford Avenue,10/11/2023 16:00:00,MW,8.1616802
Dillotford Avenue,10/11/2023 16:05:00,MW,8.2538013
Dillotford Avenue,10/11/2023 16:10:00,MW,8.3240161
Dillotford Avenue,10/11/2023 16:15:00,MW,8.2501193
Dillotford Avenue,10/11/2023 16:20:00,MW,8.3171239
Dillotford Avenue,10/11/2023 16:25:00,MW,8.4229775
Dillotford Avenue,10/11/2023 16:30:00,MW,8.4820151
Dillotford Avenue,10/11/2023 16:35:00,MW,8.4858196
Dillotford Avenue,10/11/2023 16:40:00,MW,8.6562862
Dillotford Avenue,10/11/2023 16:45:00,MW,8.8006187
Dillotford Avenue,10/11/2023 16:50:00,MW,8.7496185
Dillotford Avenue,10/11/2023 16:55:00,MW,8.7615578
Dillotford Avenue,10/11/2023 17:00:00,MW,9.006690800000001
Dillotford Avenue,10/11/2023 17:05:00,MW,8.9513538
Dillotford Avenue,10/11/2023 17:10:00,MW,8.9510361
Dillotford Avenue,10/11/2023 17:15:00,MW,9.0590104
Dillotford Avenue,10/11/2023 17:20:00,MW,9.060538300000001
Dillotford Avenue,10/11/2023 17:25:00,MW,9.12354
Dillotford Avenue,10/11/2023 17:30:00,MW,9.1530411
Dillotford Avenue,10/11/2023 17:35:00,MW,9.3187216
Dillotford Avenue,10/11/2023 17:40:00,MW,9.408127
Dillotford Avenue,10/11/2023 17:45:00,MW,9.465187
Dillotford Avenue,10/11/2023 17:50:00,MW,9.486139999999999
Dillotford Avenue,10/11/2023 17:55:00,MW,9.5840618
Dillotford Avenue,10/11/2023 18:00:00,MW,9.7844946
Dillotford Avenue,10/11/2023 18:05:00,MW,9.758044
Dillotford Avenue,10/11/2023 18:10:00,MW,9.7066698
Dillotford Avenue,10/11/2023 18:15:00,MW,9.8413868
Dillotford Avenue,10/11/2023 18:20:00,MW,9.8338018
Dillotford Avenue,10/11/2023 18:25:00,MW,9.8962718
Dillotford Avenue,10/11/2023 18:30:00,MW,10.2162502
Dillotford Avenue,10/11/2023 18:35:00,MW,10.3139776
Dillotford Avenue,10/11/2023 18:40:00,MW,10.225052999999999
Dillotford Avenue,10/11/2023 18:45:00,MW,10.2417279
Dillotford Avenue,10/11/2023 18:50:00,MW,10.2308888
Dillotford Avenue,10/11/2023 18:55:00,MW,10.1516266
Dillotford Avenue,10/11/2023 19:00:00,MW,10.272608
Dillotford Avenue,10/11/2023 19:05:00,MW,10.2962868
Dillotford Avenue,10/11/2023 19:10:00,MW,10.2698576
Dillotford Avenue,10/11/2023 19:15:00,MW,10.3241701
Dillotford Avenue,10/11/2023 19:20:00,MW,10.3285122
Dillotford Avenue,10/11/2023 19:25:00,MW,10.2273174
Dillotford Avenue,10/11/2023 19:30:00,MW,10.1651074
Dillotford Avenue,10/11/2023 19:35:00,MW,10.0864938
Dillotford Avenue,10/11/2023 19:40:00,MW,10.1317893
Dillotford Avenue,10/11/2023 19:45:00,MW,9.9610846
Dillotford Avenue,10/11/2023 19:50:00,MW,9.9914288
Dillotford Avenue,10/11/2023 19:55:00,MW,9.9769757
Dillotford Avenue,10/11/2023 20:00:00,MW,9.9734867
Dillotford Avenue,10/11/2023 20:05:00,MW,9.8883487
Dillotford Avenue,10/11/2023 20:10:00,MW,9.8956978
Dillotford Avenue,10/11/2023 20:15:00,MW,9.9250078
Dillotford Avenue,10/11/2023 20:20:00,MW,9.844445
Dillotford Avenue,10/11/2023 20:25:00,MW,9.7610823
Dillotford Avenue,10/11/2023 20:30:00,MW,9.7360332
Dillotford Avenue,10/11/2023 20:35:00,MW,9.7097289
Dillotford Avenue,10/11/2023 20:40:00,MW,9.6860629
Dillotford Avenue,10/11/2023 20:45:00,MW,9.5135448
Dillotford Avenue,10/11/2023 20:50:00,MW,9.4553324
Dillotford Avenue,10/11/2023 20:55:00,MW,9.6431477
Dillotford Avenue,10/11/2023 21:00:00,MW,9.4037941
Dillotford Avenue,10/11/2023 21:05:00,MW,9.2541074
Dillotford Avenue,10/11/2023 21:10:00,MW,9.2461878
Dillotford Avenue,10/11/2023 21:15:00,MW,9.3405175
Dillotford Avenue,10/11/2023 21:20:00,MW,9.1176795
Dillotford Avenue,10/11/2023 21:25:00,MW,8.2304239
Dillotford Avenue,10/11/2023 21:30:00,MW,8.1604025
Dillotford Avenue,10/11/2023 21:35:00,MW,8.121469999999999
Dillotford Avenue,10/11/2023 21:40:00,MW,8.0281088
Dillotford Avenue,10/11/2023 21:45:00,MW,8.108631200000001
Dillotford Avenue,10/11/2023 21:50:00,MW,8.098438999999999
Dillotford Avenue,10/11/2023 21:55:00,MW,7.813282600000001
Dillotford Avenue,10/11/2023 22:00:00,MW,7.7033841
Dillotford Avenue,10/11/2023 22:05:00,MW,7.5364112
Dillotford Avenue,10/11/2023 22:10:00,MW,7.5607313000000005
Dillotford Avenue,10/11/2023 22:15:00,MW,7.4813488
Dillotford Avenue,10/11/2023 22:20:00,MW,7.328108800000001
Dillotford Avenue,10/11/2023 22:25:00,MW,7.2876129
Dillotford Avenue,10/11/2023 22:30:00,MW,7.293502800000001
Dillotford Avenue,10/11/2023 22:35:00,MW,7.1548641
Dillotford Avenue,10/11/2023 22:40:00,MW,7.101865
Dillotford Avenue,10/11/2023 22:45:00,MW,7.044389300000001
Dillotford Avenue,10/11/2023 22:50:00,MW,6.9893516
Dillotford Avenue,10/11/2023 22:55:00,MW,6.7755852999999995
Dillotford Avenue,10/11/2023 23:00:00,MW,6.6769803
Dillotford Avenue,10/11/2023 23:05:00,MW,6.5334552
Dillotford Avenue,10/11/2023 23:10:00,MW,6.4230658
Dillotford Avenue,10/11/2023 23:15:00,MW,6.3767372
Dillotford Avenue,10/11/2023 23:20:00,MW,6.8020457
Dillotford Avenue,10/11/2023 23:25:00,MW,6.7598934
Dillotford Avenue,10/11/2023 23:30:00,MW,6.741751300000001
Dillotford Avenue,10/11/2023 23:35:00,MW,6.6988003
Dillotford Avenue,10/11/2023 23:40:00,MW,6.583539399999999
Dillotford Avenue,10/11/2023 23:45:00,MW,6.4869957000000005
Dillotford Avenue,10/11/2023 23:50:00,MW,6.4365622
Dillotford Avenue,10/11/2023 23:55:00,MW,6.4217604
